Regional Weather Roundup
Issued by NWS

Home | Current Version | Previous Version | Text Only | Print | Product List | Glossary On
Versions: 1 2 3 4 5 6 7 8 9 10 11 12 13 14 15 16 17 18 19 20 21 22 23 24 25 26 27
000
ASUS45 KPSR 310310
RWRAZ

ARIZONA HOURLY REGIONAL WEATHER ROUNDUP
NATIONAL WEATHER SERVICE PHOENIX AZ
800 PM MST SAT JUL 30 2016

NOTE: FAIR INDICATES FEW OR NO CLOUDS BELOW 12,000 FEET WITH NO
SIGNIFICANT WEATHER AND/OR OBSTRUCTIONS TO VISIBILITY.

AZZ001>003-036-310400-
NORTHWEST ARIZONA

CITY           SKY/WX    TMP DP  RH WIND       PRES   REMARKS
BULLHEAD CITY  CLEAR     99  61  28 SE18      29.70S
KINGMAN        CLEAR     85  54  34 SW17      29.94R
$$

AZZ004>008-015-016-018-310400-
NORTH CENTRAL ARIZONA

CITY           SKY/WX    TMP DP  RH WIND       PRES   REMARKS
GRAND CANYON   MOCLDY    72  50  45 SE5       30.20S
WILLIAMS       CLOUDY    66  52  59 SE20G25   30.31R
PRESCOTT       PTCLDY    81  55  40 NE7G20    30.10R
FLAGSTAFF      TSTM      59  55  87 N12G22    30.27S
PAYSON         MOCLDY    81  57  44 W5        30.11R
PAGE           CLOUDY    88  50  27 SW12G18   29.94R
$$

AZZ009>014-017-310400-
NORTHEAST ARIZONA

CITY           SKY/WX    TMP DP  RH WIND       PRES   REMARKS
WINSLOW        CLOUDY    77  52  41 W15       30.04R
SAINT JOHNS    CLOUDY    73  50  44 S20       30.12R
WINDOW ROCK    CLOUDY    72  47  40 S17       30.20R
SHOW LOW       CLOUDY    68  46  45 S15       30.20R
$$

AZZ023-310400-
GREATER PHOENIX AREA

CITY           SKY/WX    TMP DP  RH WIND       PRES   REMARKS
PHOENIX        PTCLDY    96  63  33 SW10      29.75R
BUCKEYE        CLEAR     93  63  36 SW9       29.77R
LUKE AFB       CLEAR     98  61  28 SW15      29.74R
DEER VALLEY    CLEAR     96  59  29 SW13      29.78R
SCOTTSDALE     CLEAR     97  59  28 SW9       29.80R
MESA-FALCON    PTCLDY   N/A N/A N/A SW9       29.76R
MESA-GATEWAY   PTCLDY    97  61  30 SW10        N/A
CHANDLER       PTCLDY    97  63  32 SW9       29.78R
$$

AZZ027-028-310400-
SOUTHWEST MARICOPA COUNTY AND PINAL COUNTY

CITY           SKY/WX    TMP DP  RH WIND       PRES   REMARKS
CASA GRANDE    CLEAR     93  61  33 W8        29.83R
GILA BEND      FAIR      93  66  40 SW16      29.76R
$$

AZZ503-504-507>509-310400-
SOUTHEAST ARIZONA

CITY           SKY/WX    TMP DP  RH WIND       PRES   REMARKS
TUCSON         TSTM      79  64  60 E13G24    29.95R
DAVIS-MONTHAN  MOCLDY    76  67  72 E7        29.93F
RYAN FIELD     MOCLDY    84  63  48 SE32G40   29.94R
NOGALES        CLOUDY    78  64  61 E5        30.01S
SIERRA VISTA   CLOUDY    73  58  59 W6        30.07S
DOUGLAS        CLOUDY    77  63  61 N9        30.00S
SAFFORD        CLOUDY    89  53  29 NW10      29.91R
$$

AZZ020-021-025-026-031-310400-
SOUTHWEST ARIZONA

CITY           SKY/WX    TMP DP  RH WIND       PRES   REMARKS
YUMA           CLEAR     91  69  48 S9        29.74R
$$

CAZ031-033-041-043-047-048-061-310400-
SOUTHERN CALIFORNIA

CITY           SKY/WX    TMP DP  RH WIND       PRES   REMARKS
DOWNTOWN L.A.  CLEAR     75  65  70 W5        29.82S
L.A. AIRPORT   PTCLDY    71  65  81 W7        29.83S
SAN DIEGO      MOCLDY    70  64  81 SW3       29.86R
BURBANK        CLEAR     79  65  62 S6        29.83S
ONTARIO        PTCLDY    84  63  49 W13       29.83R
RIVERSIDE      CLEAR     83  61  47 W9        29.83R
PALM SPRINGS   CLEAR     96  70  42 SE5       29.75S HX 102
EL CENTRO NAS  CLEAR     95  70  44 SE13      29.70R HX 101
IMPERIAL       CLEAR     96  72  45 SE12      29.69R HX 104
BLYTHE         CLEAR     94  69  44 S16       29.72S
NEEDLES        PTCLDY    99  64  31 S10       29.73R HX 101
$$

NVZ020-UTZ003-310400-
SOUTHERN NEVADA-UTAH

CITY           SKY/WX    TMP DP  RH WIND       PRES   REMARKS
LAS VEGAS      PTCLDY   100  54  21 S9        29.70R
SALT LAKE CITY MOCLDY    92  47  21 N3        29.88R
$$

NMZ009-TXZ055-310400-
NEW MEXICO-WEST TEXAS

CITY           SKY/WX    TMP DP  RH WIND       PRES   REMARKS
ALBUQUERQUE    TSTM      66  56  70 N26G41    30.17R
EL PASO        MOCLDY    90  51  26 SE7       29.94R
$$


........................KEY........................
SKY/WX - SKY CONDITION/WEATHER
TMP    - TEMPERATURE IN FAHRENHEIT
DP     - DEW POINT IN FAHRENHEIT
RH     - RELATIVE HUMIDITY IN PERCENT
WIND   - DIRECTION AND SPEED IN MILES PER HOUR (MPH)
VRB    - VARIABLE WIND DIRECTION
PRES   - MEAN SEA LEVEL PRESSURE IN INCHES OF MERCURY
         F - FALLING PRESSURE   R - RISING PRESSURE
         S - STEADY PRESSURE
VSB    - VISIBILITY IN MILES
HX     - HEAT INDEX IN FAHRENHEIT
WCI    - WIND CHILL INDEX IN FAHRENHEIT
TC     - TEMPERATURE IN CELSIUS WHICH IS ALSO KNOWN AS
         TEMPERATURE IN CENTIGRADE
AFB    - AIR FORCE BASE
         LUKE AFB IS LUKE AIR FORCE BASE
         DAVIS-MONTHAN IS DAVIS-MONTHAN AIR FORCE BASE
NAS    - NAVAL AIR STATION
         EL CENTRO NAS IS EL CENTRO NAVAL AIR STATION
N/A    - NOT AVAILABLE





USA.gov is the U.S. government's official web portal to all federal, state and local government web resources and services.